Location: *
(49.7115°N, 15.0136°E)
Time: 18:21:20
(UTC+00:00)

Cosmos 44 Rocket - Pass Details

Date: 27 February 2020
Orbit: 659 x 731 km, 65.1° (Epoch: 28 March)

Event Time Altitude Azimuth Distance (km) Brightness Sun altitude
Rises 17:16:43 0° 321° (NW) 3,004 7.1 -7.0°
Reaches altitude 10° 17:19:03 10° 325° (NW) 2,092 6.2 -7.4°
Maximum altitude 17:23:45 60° 46° (NE) 766 3.3 -8.1°
Drops below altitude 10° 17:28:29 10° 127° (SE) 2,111 5.3 -8.9°
Enters shadow 17:30:02 - 130° (SE) 2,710 5.9 -9.2°
